STARLINK-1615

decayed
NORAD ID: 46166 Int'l Des: 2020-057 Owner: SPXS Country: US Constellation: starlink
LEOCIRCULAR
Gruppe

Über STARLINK-1615

Beschreibung wird geladen...

Höhenverlauf

Altitude vs Time

uPlot chart will show altitude changes over time

Zweizeiliger Elementsatz

1 46166U 20057BB 24185.91053079 .13283304 12124-4 20280-2 0 9993
2 46166 53.0266 142.0124 0003730 205.0561 260.4075 16.33396205214912
Epoch: 3. Juli 2024 • Age: 10603 hours

Aktueller Status

Position data unavailable
Startdatum 18. Aug. 2020
Alter 5 years
Verglühungsdatum 4. Juli 2024
Typ internet

Technische Details

Klassifizierung Payload
Masse 260.00 kg
Trockenmasse 248.00 kg
Gesamtmasse 260.00 kg
Länge 0.20 m
Durchmesser 2.80 m
Spannweite 9.00 m
Form Box + pan
Hersteller SPXS
Bus-Typ Starlink
Phasenstatus Unknown Transfer Status
Besitzer/Staat SPXS/US

Große Konstellationen

Loading constellations...